Content
SEND FEEDBACK

Daily
Averages
Monthly
Summary
United States of America

LAKE GEORGE, NEW YORK


Home > North America > United States > New York
Elevation: 321 feet     Latitude: 43 21N     Longitude: 073 37W

WEATHER
 
SELECT A DAY
Number of Records: 218,948;   Date Range: 1/1/95 - 12/27/14
 
SHARE

PRINT THIS DATA

[ ← Previous Day ]
WEATHER ALMANAC - JANUARY 18, 2013
[ Next Day → ]
[ °C ]   °F
Weather ElementAverageHighLow
Temperature13.2 °F23 °F (2:53 pm) (6:53 am)
Dewpoint0.1 °F7 °F (11:53 pm)-4 °F (6:53 am)
Humidity58.8 %91 % (5:53 am)31 % (2:53 pm)
Barometer30.35 in30.43 in (9:53 am)30.19 in (1:53 am)
Wind Speed4.6 mph10.4 mph (2:53 pm)
Weather ElementAverage
Visibility10 mi
Wind DirectionESE (117.8 °)

Weather ElementTotal
Precipitation---
Heating Degree Days53.5 (Base 65)
Averaged from 23 records on January 18, 2013
WEATHER CONDITIONS BREAKOUT
WIND DIRECTION BREAKOUT
WEATHER BY HOUR - JANUARY 18, 2013
[ °C ]   °F
Local TimeTemperatureDewpointHumidityBarometerVisibilityWind DirectionWind SpeedGust SpeedPrecipitationEventsConditions
1:53 AM10.0 °F1.0 °F67 %30.19 in10.0 miENE (60°)9.2 mphPartly Cloudy
2:53 AM9.0 °F-0.9 °F64 %30.24 in10.0 miENE (70°)6.9 mphMostly Cloudy
3:53 AM9.0 °F0.0 °F67 %30.23 in10.0 miNNE (30°)4.6 mphOvercast
4:53 AM7.0 °F0.0 °F73 %30.27 in10.0 miCalmPartly Cloudy
5:53 AM1.9 °F0.0 °F91 %30.30 in10.0 miCalmClear
6:53 AM0.0 °F-4.0 °F83 %30.35 in10.0 miCalmClear
7:53 AM1.0 °F-2.9 °F83 %30.38 in10.0 miCalmClear
8:53 AM6.1 °F0.0 °F76 %30.41 in10.0 miCalmClear
9:53 AM9.0 °F-0.9 °F64 %30.43 in10.0 miCalmClear
10:53 AM12.0 °F-2.0 °F53 %30.41 in10.0 miSSE (160°)6.9 mphClear
11:53 AM16.0 °F-2.0 °F45 %30.39 in10.0 miSE (140°)4.6 mphClear
12:53 PM17.1 °F-2.9 °F41 %30.38 in10.0 miSE (140°)4.6 mphClear
1:53 PM21.9 °F-4.0 °F32 %30.39 in10.0 miWNW (290°)8.1 mphClear
2:53 PM23.0 °F-4.0 °F31 %30.38 in10.0 miWNW (290°)10.4 mphClear
3:53 PM23.0 °F-4.0 °F31 %30.39 in10.0 miWSW (240°)9.2 mphClear
4:53 PM19.9 °F-2.9 °F37 %30.40 in10.0 miWSW (240°)6.9 mphClear
5:53 PM18.0 °F3.0 °F52 %30.41 in10.0 miSSW (200°)8.1 mphClear
6:53 PM18.0 °F3.9 °F54 %30.41 in10.0 miSouth (190°)8.1 mphClear
7:53 PM15.1 °F3.9 °F61 %30.40 in10.0 miSouth (180°)6.9 mphClear
8:53 PM16.0 °F3.9 °F59 %30.40 in10.0 miSouth (180°)3.5 mphMostly Cloudy
9:53 PM15.1 °F5.0 °F64 %30.37 in10.0 miSouth (170°)3.5 mphPartly Cloudy
10:53 PM17.1 °F6.1 °F62 %30.32 in10.0 miSE (130°)3.5 mphOvercast
11:53 PM18.0 °F7.0 °F62 %30.29 in10.0 miCalmOvercast
Hourly data recorded from KGFL, located miles away from Lake George, New York







STORIES FROM OUR PARTNERS